Regional Weather Roundup
Issued by NWS

Home | Current Version | Previous Version | Graphics & Text | Print | Product List | Glossary On
Versions: 1 2 3 4 5 6 7 8 9 10 11 12 13 14 15 16 17 18 19 20 21 22 23 24 25 26 27 28 29 30 31 32 33 34 35 36 37 38 39 40 41 42 43 44 45 46 47 48 49 50
000
ASUS43 KOAX 220102
RWRNE

WEATHER ROUNDUP FOR NEBRASKA
NATIONAL WEATHER SERVICE OMAHA NE
800 PM CDT MON JUL 21 2014

NOTES: SATELLITE DATA IS BEING USED TO AUGMENT CLOUD COVER ABOVE
       12000 FEET.
       "FAIR" INDICATES FEW OR NO CLOUDS BELOW 12,000 FEET WITH NO
       SIGNIFICANT WEATHER AND/OR OBSTRUCTIONS TO VISIBILITY.

  * THESE STATIONS DO NOT REPORT WEATHER SUCH AS RAIN...SNOW OR FOG.

NEZ001>004-019>022-054>056-220200-
NEBRASKA PANHANDLE

CITY           SKY/WX    TMP DP  RH WIND       PRES   REMARKS
SCOTTSBLUFF    MOSUNNY   87  54  32 SE16      29.99F
ALLIANCE       CLOUDY    87  48  25 S20G29    29.99S
CHADRON        MOSUNNY  100  39  12 W13       29.88R HX  95
KIMBALL        PTSUNNY   85  45  24 NE9       30.08R
SIDNEY         PTSUNNY   89  50  26 N10       30.06R
$$

NEZ057>060-069>072-079>082-220200-
SOUTHWEST NEBRASKA

CITY           SKY/WX    TMP DP  RH WIND       PRES   REMARKS
NORTH PLATTE   MOSUNNY   89  61  38 S9        29.91R
IMPERIAL       LGT RAIN  92  56  29 S14       29.97R HX  90
LEXINGTON      PTSUNNY   94  69  43 SW3       29.90R HX  99
MCCOOK         PTSUNNY   88  59  37 SE8       29.92F
OGALLALA       PTSUNNY   89  58  35 CALM      29.95S
$$

NEZ005>010-023>029-035>040-094-220200-
NORTH CENTRAL NEBRASKA

CITY           SKY/WX    TMP DP  RH WIND       PRES   REMARKS
VALENTINE      SUNNY    100  56  23 N3        29.84S HX  99
AINSWORTH      MOSUNNY   94  56  27 NW5       29.85R HX  92
BROKEN BOW     PTSUNNY   89  74  60 S7        29.88S HX  98
O`NEILL        PTSUNNY   92  62  36 S6        29.82R HX  92
THEDFORD       MOSUNNY   97  56  24 S10G17    29.90R HX  95
$$

NEZ041-046>049-061>064-073>077-083>087-220200-
SOUTH CENTRAL NEBRASKA

CITY           SKY/WX    TMP DP  RH WIND       PRES   REMARKS
GRAND ISLAND   MOCLDY    90  77  65 S9        29.86S HX 103
HASTINGS       PTCLDY    94  64  37 S5        29.88S HX  95
HEBRON         CLEAR     93  66  40 S7        29.88R HX  96
HOLDREGE       CLOUDY    94  63  35 S6        29.90S HX  95
KEARNEY *      MOCLDY    90  73  58 S8        29.89R HX  98
YORK           MOCLDY    90  75  62 S9        29.85S HX 100
$$

NEZ011>018-030>034-042>045-220200-
NORTHEAST NEBRASKA

CITY           SKY/WX    TMP DP  RH WIND       PRES   REMARKS
NORFOLK        PTCLDY    88  78  72 S7        29.81S HX 101
ALBION         MOCLDY    88  76  68 CALM      29.83F HX  98
BLAIR          CLOUDY    90  74  60 S8        29.83S HX  99
COLUMBUS *     CLOUDY    91  77  62 SW6       29.83R HX 105
FREMONT        MOCLDY    91  79  66 SE7       29.81  HX 107
TEKAMAH        MOCLDY    90  78  68 SE7       29.80S HX 104
WAYNE          PTCLDY    88  82  81 S5        29.81S HX 108
$$

NEZ050>053-065>068-078-088>093-220200-
SOUTHEAST NEBRASKA

CITY           SKY/WX    TMP DP  RH WIND       PRES   REMARKS
LINCOLN        CLOUDY    94  76  55 S15       29.83F HX 106
OMAHA EPPLEY   CLOUDY    92  77  61 S17G24    29.82F HX 105
BEATRICE       MOCLDY    89  76  65 S9        29.87R HX 101
FALLS CITY     PTCLDY    89  76  65 S10       29.88R HX 100
NEBRASKA CITY  PTCLDY    87  76  69 S9        29.86F HX  97
PLATTSMOUTH    PTCLDY    89  77  66 S9        29.85S HX 101
$$

NEZ044-045-051>053-067-220200-
OMAHA AREA

CITY           SKY/WX    TMP DP  RH WIND       PRES   REMARKS
OMAHA EPPLEY   CLOUDY    92  77  61 S17G24    29.82F HX 105
BLAIR          CLOUDY    90  74  60 S8        29.83S HX  99
FREMONT        MOCLDY    91  79  66 SE7       29.81  HX 107
MILLARD        MOCLDY    91  79  68 SE6       29.82F HX 108
OFFUTT AFB     MOCLDY    89  82  79 SE9       29.83S HX 110
PLATTSMOUTH    PTCLDY    89  77  66 S9        29.85S HX 101
WAHOO          FAIR      91  75  59 S10       29.81F HX 101
$$


USA.gov is the U.S. government's official web portal to all federal, state and local government web resources and services.